Regional Weather Roundup
Issued by NWS Little Rock, AR

Home | Current Version | Previous Version | Text Only | Print | Product List | Glossary Off
Versions: 1 2 3 4 5 6 7 8 9 10 11 12 13 14 15 16 17 18 19 20 21 22 23 24 25 26 27 28 29 30 31 32

000
ASUS44 KLZK 080805
RWRLZK

WEATHER ROUNDUP FOR ARKANSAS
NATIONAL WEATHER SERVICE LITTLE ROCK AR
200 AM CST THU DEC 08 2016

NOTE: "FAIR" INDICATES FEW OR NO CLOUDS BELOW 12,000 FEET WITH NO
SIGNIFICANT WEATHER AND/OR OBSTRUCTIONS TO VISIBILITY.

ARZ001-003-010-029-080900-
NORTHWEST ARKANSAS

CITY           SKY/WX    TMP DP  RH WIND       PRES   REMARKS
FAYETTEVILLE   CLOUDY    28  24  85 N8        30.47R WCI  20
FORT SMITH     CLOUDY    33  25  72 N14       30.47R WCI  23
HARRISON       CLOUDY    28  24  85 NW9       30.41R WCI  19
BENTONVILLE    PTCLDY    25  12  58 N13G21    30.48R WCI  13
ROGERS         PTCLDY    23  17  78 N8G20     30.48R WCI  14
SILOAM SPGS    PTCLDY    25  16  68 N13       30.49R WCI  13
HIGHFILL       PTCLDY    25  16  68 N12       30.48R WCI  14
$$

ARZ004-005-016-080900-
NORTH CENTRAL ARKANSAS

CITY           SKY/WX    TMP DP  RH WIND       PRES   REMARKS
BATESVILLE     CLOUDY    36  21  55 NW8       30.41R
FLIPPIN        CLOUDY    32  21  64 NW7       30.40R WCI  26
MTN HOME       CLOUDY    29  23  78 VRB5      30.41R WCI  24
$$

ARZ040-041-080900-
WEST CENTRAL ARKANSAS

CITY           SKY/WX    TMP DP  RH WIND       PRES   REMARKS
MENA           CLOUDY    36  30  80 N7        30.40R
MOUNT IDA      CLOUDY    36  30  79 NW3       30.37R
$$

ARZ009-017-025-026-028-080900-
NORTHEAST ARKANSAS

CITY           SKY/WX    TMP DP  RH WIND       PRES   REMARKS
CORNING        CLOUDY    36  27  69 NW17      30.39R
JONESBORO      CLOUDY    38  24  57 N7        30.38R
NEWPORT        CLOUDY    37  25  61 N13       30.39R
WALNUT RIDGE   CLOUDY    36  23  60 N17       30.39R
BLYTHEVILLE    CLOUDY    37  28  70 N9        30.37R
$$

ARZ022-023-033-042-044-080900-
CENTRAL ARKANSAS

CITY           SKY/WX    TMP DP  RH WIND       PRES   REMARKS
LITTLE ROCK    CLOUDY    39  25  57 N10       30.40R
N LITTLE ROCK    N/A     38  26  62 N6        30.42R
JACKSONVILLE   CLOUDY    40  24  54 N6        30.38R
SEARCY         CLOUDY    38  23  55 N9        30.41R
HOT SPRINGS    CLOUDY    38  26  62 N8        30.40R
RUSSELLVILLE   CLOUDY    36  26  67 NW3       30.41R
CLINTON        CLOUDY    36  25  64 NW10G16   30.41R
$$

ARZ036-080900-
EAST ARKANSAS

CITY           SKY/WX    TMP DP  RH WIND       PRES   REMARKS
WEST MEMPHIS   CLOUDY    38  29  70 N8        30.35R
$$

ARZ050-053-066-070-073-080900-
SOUTHWEST ARKANSAS

CITY           SKY/WX    TMP DP  RH WIND       PRES   REMARKS
ARKADELPHIA    CLOUDY    39  30  70 N8        30.40R
CAMDEN         CLOUDY    37  32  81 N5        30.39R
TEXARKANA      CLOUDY    38  36  92 N9        30.38R
EL DORADO      CLOUDY    38  37  97 N6        30.36R FOG
DE QUEEN       CLOUDY    39  31  72 NE12      30.40R
$$

ARZ056-057-069-080900-
SOUTHEAST ARKANSAS

CITY           SKY/WX    TMP DP  RH WIND       PRES   REMARKS
PINE BLUFF     CLOUDY    40  26  57 N9        30.37R
STUTTGART      CLOUDY    39  25  56 N10       30.37S
MONTICELLO     CLOUDY    40  32  73 N3        30.35R

$$






USA.gov is the U.S. government's official web portal to all federal, state and local government web resources and services.